Tracking 31027 objects as of 19-Jul-2025
HD Live streaming from Space Station
objects crossing your sky now

DELTA R/B(1)

Track DELTA R/B(1) now!
10-day predictions


NORAD ID: 25619
Int'l Code: 1999-003B
Perigee: 288.8 km
Apogee: 3,312.7 km
Inclination: 22.4 °
Period: 122.5 minutes
Semi major axis: 8171 km
RCS: 10.5824 m2 (large)
Launch date: February 7, 1999
Source: United States (US)
Launch site: AIR FORCE EASTERN TEST RANGE (AFETR)

Note: This is a ROCKET BODY
Your satellite tracking list
IRIDIUM 33 DEB
Track 1 satellite(s)




NASA's NSSDC Master Catalog

Two Line Element Set (TLE):
1 25619U 99003B   25199.82528423  .00035465 -49380-5  10017-2 0  9998
2 25619  22.4436   5.2927 1850210  75.0980 304.6151 11.75240980983723
Source of the keplerian elements: AFSPC